Regional Weather Roundup
Issued by NWS

Home | Current Version | Previous Version | Graphics & Text | Print | Product List | Glossary On
Versions: 1 2 3 4 5 6 7 8 9 10 11 12 13 14 15 16 17 18 19 20 21 22 23 24 25 26 27 28 29 30 31 32 33 34 35 36 37 38 39 40 41 42 43 44 45 46 47 48 49 50
221
ASUS44 KMEG 301710
RWRTN
TENNESSEE HOURLY STATE WEATHER ROUNDUP
NATIONAL WEATHER SERVICE MEMPHIS TN
1200 PM CDT SAT APR 30 2016

TNZ002-004-019-021-049-052-054-088>092-301800-
WEST TENNESSEE

CITY           SKY/WX    TMP DP  RH WIND       PRES   REMARKS
MEMPHIS INTL   LGT RAIN  70  58  65 S28G38    29.80R
NWS MEMPHIS      N/A     68 N/A N/A MISG        N/A
JACKSON        PTSUNNY   67  62  84 SE12G25   29.81F
DYERSBURG      CLOUDY    70  63  78 S6          N/A
UNION CITY     SUNNY     66  64  94 S9        29.82S
LEXINGTON      PTSUNNY   66  64  94 S8        29.91F
$$

TNZ008-025-027-028-033-062-065-066-301800-
NORTH MIDDLE TENNESSEE

CITY           SKY/WX    TMP DP  RH WIND       PRES   REMARKS
NASHVILLE      CLOUDY    69  63  81 CALM      29.95R
CLARKSVILLE    LGT RAIN  65  63  93 SE9       29.91F
SMYRNA         PTSUNNY   69  63  81 CALM      29.95R
COOKEVILLE     MOSUNNY   66  63  88 VRB5      29.95F
CROSSVILLE     CLOUDY    69  58  67 E6        30.01F
$$

TNZ061-075-076-078-094-096-097-301800-
SOUTH MIDDLE TENNESSEE

CITY           SKY/WX    TMP DP  RH WIND       PRES   REMARKS
FAYETTEVILLE   SUNNY     75  63  64 S10       29.94S
TULLAHOMA      SUNNY     73  61  64 S8        29.95S
WINCHESTER     MOSUNNY   77  59  53 S5        29.94F
MCMINNVILLE    MOSUNNY   70  63  78 E5        29.95F
COLUMBIA         N/A     73  73 100 W12       29.92S
SHELBYVILLE    MOSUNNY   75  63  64 S12       29.94S
$$

TNZ017-018-042-046-047-301800-
NORTHEAST TENNESSEE

CITY           SKY/WX    TMP DP  RH WIND       PRES   REMARKS
TRI CITIES     CLOUDY    75  57  53 CALM      30.02S
$$

TNZ012-013-036-069-073-074-301800-
CENTRAL EAST TENNESSEE

CITY           SKY/WX    TMP DP  RH WIND       PRES   REMARKS
KNOXVILLE      CLOUDY    75  57  53 N6        29.96F
OAK RIDGE      CLOUDY    70  56  61 VRB3      29.98F
GATLINBURG     SUNNY     75  57  53 N5        29.96F
MORRISTOWN     CLOUDY    77  59  53 VRB5      29.99F
$$

TNZ083-085-099-301800-
SOUTHEAST TENNESSEE

CITY           SKY/WX    TMP DP  RH WIND       PRES   REMARKS
CHATTANOOGA    CLOUDY    75  60  59 VRB6      29.95F
$$

SKY/WX REPORTED AS FAIR MEANS FEW OR NO CLOUDS BELOW
12 THOUSAND FEET.





USA.gov is the U.S. government's official web portal to all federal, state and local government web resources and services.